Theta_e
347 347 349 349 346 344 343 342 341 341 342 342 341 339 338 337 336 336 337 339 343 346 344 345 348 348 348 348 348 349 349 349 349 349 348 348 348 347 346 342 339 337 337 338 338 337 336 336 339 340 340 337 331 328 331 333 332 333 333 333 334 333 333 333 332 332 332 333 333 334 334 335 335 335 336 337 336 336 335 335 335 334 334 335 335
346 347 347 346 344 344 344 342 341 342 342 341 341 340 338 336 335 334 334 336 339 342 342 343 347 347 346 346 347 348 349 349 350 350 348 348 349 348 347 344 340 338 337 337 337 337 338 337 337 339 339 337 334 329 330 332 332 333 333 333 334 334 334 333 333 331 332 332 331 332 332 333 333 334 335 335 335 335 335 334 334 333 333 334 334
343 345 345 344 341 342 344 344 346 347 344 339 338 337 336 334 333 334 334 333 334 338 341 344 345 346 346 346 346 348 348 348 349 350 350 349 348 349 349 345 342 340 338 337 336 336 337 338 337 338 338 337 335 332 331 332 332 333 333 334 334 334 334 333 333 332 331 331 330 330 331 331 331 332 332 333 334 334 334 334 333 332 332 332 333
338 340 340 340 339 339 342 345 347 349 344 338 335 334 333 332 331 333 333 332 333 335 338 344 346 346 347 346 346 347 347 347 349 349 349 349 349 350 349 348 345 341 339 338 337 336 337 338 338 337 337 337 335 333 332 332 333 333 333 334 335 335 335 334 333 332 332 331 330 331 331 331 331 331 332 332 332 333 333 333 332 332 331 331 331
338 338 339 339 340 339 340 340 342 343 341 337 335 332 331 330 331 332 332 333 334 333 335 343 348 347 347 346 344 346 346 346 346 347 347 348 349 349 349 349 349 346 341 338 337 337 336 337 338 338 337 337 336 333 332 332 332 333 333 333 334 335 335 334 334 333 332 332 332 332 332 332 332 332 332 332 332 333 333 333 332 333 332 331 331
339 340 340 341 342 342 341 339 339 340 341 340 337 334 332 331 330 331 334 335 335 335 335 340 346 348 346 342 341 341 343 343 343 343 345 346 348 349 349 348 348 347 345 341 338 337 337 336 337 338 338 337 335 334 332 331 331 332 332 333 333 334 335 335 334 333 333 333 333 333 333 333 333 333 333 333 333 333 333 333 333 333 332 332 331
341 342 341 342 343 343 342 340 339 338 340 341 339 338 336 331 329 330 333 335 336 337 337 336 340 347 346 341 339 339 339 339 339 341 341 344 346 348 348 346 345 345 347 346 342 339 337 337 337 338 339 338 337 335 333 332 331 331 331 332 333 334 335 336 335 334 333 332 332 333 333 334 334 334 333 333 332 332 332 332 332 332 332 331 331
342 343 343 343 344 345 345 344 342 339 340 342 341 340 340 336 333 333 334 334 336 338 339 338 337 343 347 344 340 339 339 337 337 339 340 342 345 347 347 345 345 345 346 346 346 344 340 338 338 338 339 339 340 338 336 333 332 332 331 332 332 334 335 336 336 334 333 331 331 331 331 332 333 332 332 332 331 331 331 331 331 331 331 330 330
344 344 345 345 346 347 348 347 345 343 342 341 339 339 339 340 337 335 335 338 339 338 339 339 338 339 343 346 345 340 339 338 337 338 339 340 342 346 347 345 344 345 344 344 347 347 344 341 340 338 338 339 340 340 339 337 333 332 333 332 332 333 334 335 336 335 333 331 330 330 330 330 331 331 332 331 331 330 330 329 329 329 329 330 329
346 345 346 347 347 348 347 347 346 346 345 342 339 337 336 337 337 336 337 340 340 338 337 339 340 340 341 345 346 342 339 338 338 338 338 338 340 343 345 343 342 343 344 344 347 348 347 345 343 341 339 339 339 339 340 340 338 335 332 332 333 333 334 334 334 334 333 331 330 330 329 329 330 331 331 331 331 331 330 329 329 328 328 328 328
345 344 345 345 345 347 347 347 346 345 344 342 339 338 338 341 342 341 339 338 337 337 338 340 341 343 343 342 344 345 342 340 340 340 339 339 339 341 341 341 342 342 343 344 344 346 348 348 345 342 341 339 339 339 339 340 340 339 335 332 332 334 334 334 334 334 333 332 331 330 329 330 330 331 332 332 332 332 332 331 330 329 329 328 327
341 341 342 343 343 345 346 346 345 345 344 342 341 341 342 344 344 341 337 335 337 338 339 341 341 342 343 343 343 345 344 341 340 340 340 340 339 340 340 341 342 342 343 342 341 344 347 348 346 343 341 340 339 339 339 339 340 341 339 334 331 331 333 334 334 334 334 332 331 330 330 331 332 333 334 334 333 332 332 332 332 331 331 331 330
335 336 338 339 339 341 342 341 341 341 341 341 341 339 339 339 335 332 331 331 333 336 338 340 341 343 344 343 344 344 343 342 340 338 339 340 340 340 341 343 342 341 342 343 341 343 347 348 347 344 341 340 340 340 339 340 340 341 342 339 334 331 332 334 335 335 334 334 333 332 332 333 335 335 337 336 335 334 333 333 332 332 332 332 333
335 337 337 337 337 337 338 338 337 338 339 340 340 339 338 337 334 329 328 329 331 334 336 337 340 342 343 343 343 344 344 344 341 339 339 341 343 342 340 343 344 342 344 345 344 344 347 349 348 346 343 341 340 340 340 341 342 341 342 342 339 335 333 334 334 335 335 335 334 334 334 335 337 337 338 338 338 337 335 334 334 333 333 333 333
334 335 336 338 338 339 340 340 340 340 341 341 340 341 341 341 339 335 331 332 334 335 337 339 341 343 344 344 343 342 343 344 343 341 340 342 344 345 342 342 344 344 346 347 346 347 348 348 348 348 347 344 341 340 341 341 341 341 341 342 341 339 336 335 334 334 335 336 336 337 337 338 338 339 339 340 339 338 337 336 335 335 335 334 334
334 333 333 336 337 338 339 340 341 342 341 340 341 341 343 343 342 340 336 337 337 337 339 342 343 344 344 344 343 342 342 343 343 342 342 344 345 345 344 343 344 345 347 348 347 347 348 349 348 348 347 347 342 338 339 340 340 341 341 340 341 341 339 337 336 335 335 336 336 338 339 339 339 340 340 340 340 339 339 337 336 335 335 335 335
337 335 333 334 334 333 334 335 336 339 340 341 343 343 343 344 342 340 338 338 339 339 340 341 342 343 343 342 342 342 342 342 342 343 343 346 346 346 345 344 344 345 347 349 349 347 347 348 349 348 348 348 344 339 338 338 339 341 341 340 340 339 339 339 338 337 336 335 335 337 338 339 339 339 340 341 340 340 339 338 336 336 335 336 336
339 337 336 335 334 333 334 334 336 338 340 342 343 343 342 342 341 341 342 341 340 339 340 340 341 342 342 341 342 341 342 342 343 343 342 342 345 346 346 344 344 345 345 347 349 348 347 347 349 349 349 349 346 342 340 338 338 339 339 340 340 338 338 338 338 338 337 336 336 336 337 338 339 339 340 341 340 339 337 336 336 336 336 336 336
337 337 336 336 336 337 338 339 339 340 340 341 340 340 341 340 341 343 343 341 340 339 340 341 340 341 341 340 340 340 340 340 342 343 342 340 340 342 344 343 343 344 345 346 346 347 347 346 348 348 349 349 348 345 343 341 340 339 338 338 339 338 338 338 338 337 337 336 336 336 336 337 338 338 339 340 340 337 336 335 334 334 335 335 336
333 333 332 335 336 337 338 339 339 339 339 339 338 339 340 340 340 341 340 339 339 338 339 340 339 340 340 340 339 339 339 338 339 342 342 340 338 337 338 340 343 344 345 345 345 344 346 347 347 347 348 348 348 347 345 342 340 339 338 338 338 338 338 337 336 336 335 335 335 335 335 336 337 338 338 339 339 337 335 334 334 333 334 333 334
333 333 331 332 333 334 334 336 338 340 340 338 338 339 339 339 339 339 339 338 337 338 337 338 338 338 339 339 339 339 339 339 340 341 341 340 338 338 338 336 338 342 342 343 343 343 346 349 346 347 348 346 346 348 347 345 342 339 338 337 337 338 338 337 335 335 334 334 334 334 334 335 336 338 339 339 338 336 336 334 333 333 333 333 333
334 334 332 331 330 329 329 331 334 336 338 338 338 337 338 339 339 338 338 336 335 336 336 336 336 337 338 338 338 337 338 339 340 341 341 340 339 339 339 335 334 337 339 341 342 342 344 347 346 347 348 345 343 346 347 347 345 341 338 337 337 337 336 336 335 335 334 334 333 333 332 331 333 336 338 339 339 338 337 336 333 333 332 333 333
334 335 335 333 329 326 327 329 330 330 332 334 336 336 336 339 339 337 335 333 333 334 335 334 335 338 337 337 337 338 337 337 338 340 341 341 339 338 339 338 336 336 336 338 341 341 342 344 347 348 348 344 343 345 346 347 347 343 340 338 337 336 336 335 335 334 334 333 333 332 331 331 330 331 334 337 338 338 337 335 333 333 334 334 334
336 336 336 335 329 325 327 328 328 328 329 330 330 332 332 334 335 334 332 331 332 331 332 332 334 336 336 335 336 336 337 337 338 339 340 341 340 340 340 339 339 337 336 337 338 340 343 343 346 348 347 346 343 344 346 348 348 346 342 340 339 337 335 335 335 335 333 332 333 333 333 332 331 330 331 332 334 335 335 334 333 334 335 336 336
337 336 335 333 329 328 327 325 326 327 328 329 329 329 330 331 331 331 331 331 331 331 331 331 331 333 334 334 334 334 335 337 338 340 340 338 339 340 340 340 340 339 339 338 336 338 341 343 344 344 345 344 344 345 346 348 349 347 345 342 340 338 337 336 335 334 333 332 333 333 333 333 333 331 330 331 331 332 333 333 333 335 336 337 337
334 331 329 328 328 328 329 327 327 327 328 329 329 328 330 330 331 332 332 332 333 332 331 331 333 334 333 333 333 333 334 335 336 340 340 339 338 338 338 339 339 339 338 338 336 335 337 340 343 344 344 341 340 343 346 348 349 348 347 345 342 339 337 335 334 333 333 333 333 333 333 333 333 332 331 331 331 331 332 333 334 335 336 337 337
329 326 326 326 327 328 329 329 329 329 330 330 329 329 329 330 331 332 332 332 333 331 329 330 331 331 331 332 332 332 333 333 333 335 337 337 338 337 337 337 338 338 337 336 335 335 336 337 341 344 345 341 337 341 344 347 349 348 347 347 345 341 338 335 333 332 333 334 333 334 333 334 334 333 332 331 332 332 331 333 334 335 336 336 337
326 325 327 327 327 328 329 330 330 331 332 331 329 329 330 330 330 330 330 330 330 329 328 328 328 328 330 331 332 333 333 332 333 334 333 333 336 339 340 339 337 337 337 336 336 336 336 336 338 341 343 342 340 341 343 346 349 349 347 347 346 344 340 337 336 334 333 333 332 333 333 334 335 335 334 333 332 332 332 333 334 335 335 335 337
328 328 328 327 327 329 329 329 330 331 332 331 329 328 328 329 329 329 330 330 329 328 328 329 330 331 332 331 331 333 333 332 334 336 334 332 333 338 341 340 338 336 336 337 336 335 335 335 336 338 341 342 343 343 344 345 348 349 348 347 346 345 343 338 338 337 334 333 334 334 335 335 335 337 337 335 334 333 333 334 335 336 336 336 337
330 328 327 326 326 326 327 328 330 330 329 329 328 328 327 328 328 329 330 331 330 329 329 330 330 331 331 330 329 330 330 330 333 335 334 333 332 333 335 337 338 336 335 336 336 334 333 334 334 336 340 343 343 344 344 345 346 347 347 344 344 346 344 340 339 338 336 335 335 336 337 336 336 338 338 336 335 334 334 335 337 337 337 337 337
329 327 326 326 325 324 325 327 329 330 330 330 330 328 326 326 327 328 330 330 330 328 328 329 329 329 328 328 327 328 326 328 330 332 333 334 333 333 333 334 337 339 336 334 335 333 331 332 332 334 340 343 342 341 342 342 342 345 346 344 341 342 343 340 338 339 337 335 336 336 336 337 337 338 338 336 335 335 336 337 338 337 337 336 335
329 327 325 325 324 324 325 326 327 328 329 329 329 327 326 326 326 327 327 327 327 327 327 328 328 328 327 326 325 324 324 325 325 328 331 333 333 334 333 334 337 340 338 334 334 334 332 332 332 332 337 341 341 339 338 337 337 342 346 346 342 339 340 339 337 338 338 336 336 336 336 337 337 339 339 337 337 337 338 338 338 337 336 335 335
330 328 326 325 324 323 323 325 325 326 326 327 327 326 327 326 326 326 326 325 324 325 326 328 328 328 326 324 322 322 324 326 325 326 329 330 331 332 334 335 336 337 337 335 334 334 333 332 332 332 333 337 340 340 339 335 335 341 344 346 345 341 338 338 337 338 338 338 337 337 337 337 337 339 340 339 339 339 339 338 338 337 336 336 338
332 331 328 325 324 324 324 324 325 326 326 326 327 327 327 326 326 326 325 324 324 325 326 328 328 327 325 323 321 322 326 329 328 328 329 330 331 332 334 335 335 336 338 338 334 333 333 333 332 334 334 336 339 340 339 336 336 340 343 345 346 344 339 337 337 337 338 339 338 337 337 337 336 337 339 340 340 340 339 339 338 337 337 339 339
332 332 330 326 323 324 324 325 327 326 325 326 326 327 328 328 328 327 326 325 325 324 325 326 326 325 324 322 322 324 327 329 327 327 328 329 330 331 332 333 334 335 338 339 336 334 334 334 334 335 336 336 339 340 338 336 335 339 343 345 346 347 343 340 338 336 336 340 340 339 337 337 337 337 338 339 340 340 340 340 339 339 339 340 338
331 332 331 329 327 326 327 327 327 326 326 326 326 327 329 331 330 329 327 326 325 323 322 322 324 325 324 323 324 325 327 327 326 327 327 327 328 329 330 332 333 334 335 337 337 334 334 335 334 334 334 335 339 341 339 337 335 337 340 343 346 346 343 342 342 340 338 340 341 340 338 338 337 338 339 340 341 341 341 341 340 340 339 338 337
330 330 330 330 331 330 330 329 328 328 327 326 326 327 328 331 331 329 328 326 325 323 321 321 324 325 325 325 325 326 326 325 325 326 327 327 327 327 328 330 331 333 333 336 338 335 334 335 335 333 334 336 339 341 340 339 338 338 340 343 344 343 340 340 343 343 342 343 343 341 338 338 338 338 339 340 340 341 340 340 339 338 337 336 336
329 328 328 329 330 330 330 330 331 333 332 330 331 331 330 330 330 328 327 327 325 323 321 322 325 326 325 325 324 324 325 324 324 324 325 325 325 326 327 328 330 332 333 336 339 337 333 334 335 334 335 337 339 341 341 340 339 340 343 344 344 343 340 338 341 343 344 344 343 341 339 338 338 338 338 338 338 338 337 337 337 337 337 337 337
330 329 328 329 329 330 330 331 332 335 336 335 336 335 332 331 329 327 326 326 326 325 320 321 325 326 325 324 323 323 322 322 322 322 322 324 324 324 325 326 329 332 333 334 337 338 335 334 335 335 335 336 339 340 341 341 340 341 344 345 345 344 342 341 342 343 344 344 342 341 339 339 338 338 338 337 337 336 337 337 337 338 338 337 337
330 329 328 329 328 329 331 332 333 334 335 334 335 335 334 330 328 327 326 327 327 325 321 321 326 326 324 323 323 321 320 320 319 319 319 321 322 323 324 325 328 331 332 333 335 337 336 334 333 334 335 336 338 339 340 342 342 342 343 343 343 344 343 343 344 343 342 342 342 341 340 339 339 339 339 338 337 336 336 337 337 339 338 337 338
330 330 329 329 330 330 332 333 333 332 332 333 334 333 330 328 326 325 325 326 327 325 321 322 326 326 323 321 321 320 318 317 318 319 319 319 320 321 322 324 326 329 331 333 333 336 337 337 335 334 335 336 338 339 340 341 341 341 341 340 340 341 342 343 344 342 341 342 342 341 340 340 340 340 339 338 338 336 335 336 338 339 338 337 338
330 330 330 330 331 331 332 333 333 332 332 333 332 330 327 324 324 323 324 325 326 324 322 322 325 326 323 319 319 319 316 315 317 319 320 319 320 321 321 322 324 327 330 331 332 332 334 337 337 336 335 335 337 339 340 340 338 339 340 340 341 341 341 341 341 339 340 343 342 340 341 341 340 341 340 338 337 337 336 336 337 338 338 337 337
330 330 330 330 330 330 331 333 333 333 333 332 331 330 328 324 321 322 323 324 325 324 322 322 323 325 324 319 318 318 316 314 316 318 319 320 320 319 320 321 322 325 327 329 331 331 331 333 336 336 336 336 337 339 340 340 339 338 338 340 342 344 343 342 340 338 340 344 346 343 342 341 341 341 341 339 338 338 337 336 336 336 336 336 337
330 329 329 330 330 331 332 333 334 334 333 331 330 330 328 323 321 321 321 322 323 324 323 323 322 323 323 321 319 318 315 313 315 317 319 320 319 318 319 319 321 323 325 327 329 331 332 332 334 335 336 336 336 338 340 340 340 340 339 339 341 344 344 342 341 339 339 343 346 344 343 343 342 341 339 338 337 339 339 339 338 336 335 335 336
329 329 329 330 330 331 332 333 334 333 331 330 330 330 326 323 322 322 321 321 323 324 324 324 323 323 322 321 321 319 316 314 315 317 319 320 319 318 318 318 320 321 323 325 327 329 330 331 333 334 335 336 336 337 340 341 341 341 341 340 341 343 344 342 340 338 338 339 343 344 344 344 343 341 339 337 336 337 339 340 341 340 339 338 337
329 329 329 331 331 331 331 331 329 329 329 328 328 328 326 325 324 323 322 322 323 324 324 324 325 325 323 321 321 320 318 317 317 319 320 320 319 318 318 317 318 320 322 324 326 327 328 329 332 333 334 336 337 336 339 340 340 340 341 341 342 343 343 342 340 340 339 339 341 343 344 344 343 341 339 337 336 336 338 340 342 342 342 341 339
330 330 330 330 330 329 329 328 325 325 327 327 326 327 327 326 325 324 323 322 322 324 325 325 326 325 322 320 320 320 320 320 320 321 322 320 318 318 317 317 318 320 323 324 325 326 326 327 330 332 333 335 336 337 338 339 338 338 339 340 341 341 341 342 342 343 342 340 339 340 342 344 343 342 341 340 338 338 339 342 343 343 342 340 340
330 329 328 328 327 326 326 325 324 324 325 325 326 326 326 326 325 325 323 322 322 324 326 326 327 326 322 319 319 319 320 321 321 322 322 320 318 318 317 317 318 320 322 324 324 324 325 326 328 330 332 333 335 337 339 339 339 338 339 340 341 341 342 344 343 343 342 340 339 339 342 344 344 342 342 341 341 342 344 344 344 343 341 340 341
329 328 327 326 327 326 324 324 323 324 324 325 325 325 324 325 326 326 324 322 322 324 325 326 328 326 321 319 320 320 320 320 320 321 322 321 319 318 316 317 318 320 322 323 323 324 325 326 328 330 332 333 334 335 336 337 337 338 340 342 342 340 341 344 346 344 341 339 339 339 342 344 345 344 343 343 344 345 346 347 346 344 341 340 340
327 328 328 327 327 328 327 326 324 322 323 323 324 324 323 324 325 326 324 322 321 322 325 327 329 327 322 320 320 319 319 320 319 320 322 322 319 317 316 317 319 321 322 322 324 325 326 327 329 331 332 333 333 334 334 334 335 336 339 342 343 341 341 344 347 344 340 338 339 340 341 343 344 346 345 345 346 347 348 349 348 345 341 339 339
328 328 328 328 328 329 329 327 325 324 324 323 322 322 323 323 324 325 325 323 321 322 325 327 327 326 323 320 319 318 319 319 319 320 322 322 320 317 317 318 319 321 322 322 324 325 327 329 330 332 333 333 333 334 334 334 334 334 336 338 340 340 340 343 346 343 341 341 339 341 344 344 345 346 345 345 347 347 346 347 348 346 342 338 337
Wind_Speed
8 9 8 10 10 9 11 12 13 13 12 12 12 12 12 12 13 13 14 15 17 17 17 13 10 9 9 8 9 10 10 10 10 11 12 12 12 11 11 12 13 14 14 12 11 10 11 11 11 12 12 11 13 16 17 16 15 14 13 12 12 12 11 11 11 11 11 10 10 10 9 9 9 8 7 7 7 6 6 6 6 6 6 6 6
8 9 9 11 10 10 11 12 12 12 12 12 12 12 12 12 12 14 14 16 20 22 21 16 12 11 11 10 8 9 10 10 11 11 12 12 12 13 13 13 13 14 14 14 13 13 12 12 12 13 13 13 13 15 18 18 16 16 15 14 13 13 13 12 12 11 11 11 11 11 10 10 9 9 8 8 7 7 7 7 7 7 7 7 7
10 10 11 11 11 11 12 12 11 11 13 12 12 12 12 13 14 16 16 17 19 21 22 19 16 13 11 11 9 10 12 10 11 12 12 12 11 14 16 14 13 14 14 15 15 15 14 13 13 13 14 14 13 15 18 18 17 17 16 15 15 14 14 13 13 12 12 12 11 11 11 11 10 10 9 9 9 8 8 8 8 8 8 8 9
13 12 13 14 14 15 13 13 12 13 15 14 12 12 12 14 16 16 17 17 17 19 22 21 18 15 13 13 13 13 14 12 12 12 12 12 12 14 16 16 15 15 15 15 16 17 16 15 15 15 15 15 14 15 17 18 18 17 17 16 16 15 15 15 14 13 13 12 12 11 11 11 10 10 10 10 9 9 9 9 9 9 9 9 9
15 15 16 16 17 17 17 17 17 17 18 17 15 14 14 14 15 15 16 18 18 19 21 21 19 17 15 16 17 17 16 16 16 15 14 13 13 15 16 17 17 15 16 17 16 17 18 17 17 16 16 16 16 16 17 18 19 19 18 18 17 17 17 16 15 14 14 13 12 12 12 11 11 10 10 10 10 10 10 10 10 10 10 10 11
18 18 18 19 19 19 19 20 20 21 21 20 19 18 17 16 16 16 16 17 18 19 20 20 19 19 21 22 22 21 20 21 20 19 17 16 15 16 17 18 19 17 17 18 19 18 19 19 19 18 18 17 17 17 17 18 19 20 20 19 19 18 18 17 17 16 15 14 14 13 13 12 12 11 11 11 11 11 11 12 12 12 12 12 12
19 20 20 21 21 22 22 22 23 24 24 24 23 22 22 20 18 18 18 19 20 20 20 21 21 21 26 27 25 24 24 25 24 22 21 19 18 18 19 20 21 20 18 19 20 20 20 20 20 20 19 19 19 18 19 19 19 20 21 21 21 20 20 19 18 17 16 16 15 15 14 14 13 13 13 12 12 12 13 13 13 13 13 13 12
20 20 21 22 22 23 23 23 24 24 24 25 25 26 26 24 22 20 20 20 21 22 23 23 23 23 28 30 29 28 27 28 27 26 24 22 21 21 22 21 21 21 21 21 21 21 22 21 21 21 21 20 20 20 20 20 20 21 21 22 22 22 21 20 20 19 18 17 17 16 16 15 15 14 14 13 13 13 13 14 14 14 14 14 13
19 19 21 23 23 23 22 22 23 23 24 25 26 28 28 27 26 24 22 22 23 26 27 28 29 29 29 28 30 31 29 28 28 27 26 25 24 24 24 23 21 21 22 22 22 22 22 22 22 22 22 22 22 21 21 21 22 22 22 22 23 23 23 22 21 21 20 19 18 18 17 17 16 15 15 14 14 14 14 14 14 15 15 15 14
17 17 19 22 24 23 22 21 22 23 24 24 25 26 28 27 27 27 24 22 24 27 29 29 30 30 30 28 29 31 31 30 29 29 29 28 27 26 27 26 24 23 22 23 23 23 23 22 22 22 22 23 23 23 23 23 23 23 24 24 24 24 23 23 23 22 21 20 20 19 18 18 17 16 15 15 14 14 14 14 14 14 15 15 15
17 16 17 19 22 23 23 22 23 24 25 25 24 25 26 26 26 26 24 24 24 25 26 27 28 28 30 31 30 31 32 30 29 29 30 30 29 29 30 29 26 25 24 25 26 26 26 24 22 23 23 24 24 24 24 24 24 24 25 26 26 25 25 24 24 23 22 22 21 20 19 19 18 17 16 15 15 15 14 14 14 14 14 15 15
19 18 17 17 18 20 21 21 22 22 23 24 23 22 22 23 23 24 25 26 25 25 25 26 29 29 29 30 30 32 34 32 31 31 31 31 31 30 30 30 28 26 25 26 27 29 29 26 24 24 24 25 25 24 25 25 25 25 26 27 27 27 27 26 25 24 24 23 23 22 21 20 19 18 17 16 16 16 16 16 15 15 15 15 15
20 19 18 18 17 18 18 18 17 17 18 19 19 19 19 21 23 24 27 27 25 24 24 25 27 28 29 31 31 32 33 33 34 34 33 32 33 33 31 30 30 28 26 24 25 28 28 26 26 26 24 24 24 24 25 25 26 26 26 27 27 28 28 28 27 26 25 24 24 23 22 22 21 20 19 18 18 17 17 17 17 16 16 16 16
18 18 18 18 18 18 18 18 18 17 18 18 19 20 20 20 22 24 26 26 24 22 22 24 25 26 27 29 31 29 28 30 31 32 32 31 32 34 34 31 29 28 25 23 25 26 26 25 26 25 23 23 23 24 25 26 26 26 26 27 27 27 28 28 28 27 26 25 24 24 23 22 21 21 21 20 20 19 19 19 18 18 18 17 17
17 18 18 17 17 17 16 17 17 17 18 18 19 19 19 19 20 22 25 24 22 20 20 23 24 23 24 26 28 26 23 24 26 28 29 29 29 32 34 32 30 28 24 24 25 24 25 26 25 25 24 23 23 23 25 25 26 27 27 27 27 27 28 28 28 28 28 26 25 24 24 23 23 22 22 22 22 21 21 20 20 19 19 19 18
17 18 19 18 18 17 17 17 16 16 18 18 18 18 18 18 18 20 21 21 21 20 19 21 21 21 21 22 22 21 19 19 21 24 24 26 28 31 33 32 31 29 26 26 27 25 25 25 25 26 25 25 24 23 23 24 25 26 27 27 27 27 28 28 28 28 28 28 27 26 26 25 24 24 24 24 24 23 23 22 22 21 20 20 20
15 15 17 18 18 19 19 19 19 18 18 17 17 16 16 16 17 19 19 20 20 20 20 21 21 20 20 21 18 17 18 17 18 19 18 21 24 27 31 31 31 31 29 28 29 28 27 24 25 27 26 26 27 25 23 23 24 26 26 26 27 27 28 28 29 29 29 29 29 28 28 27 26 26 25 25 24 24 23 23 23 22 22 21 21
12 12 13 14 16 17 17 18 18 18 18 17 17 17 18 19 18 18 18 19 20 20 20 20 20 20 21 23 22 20 22 22 21 20 19 19 19 20 24 28 31 32 31 32 31 29 28 25 25 26 26 28 29 27 25 24 25 26 26 27 27 27 27 28 29 29 29 29 30 30 29 29 28 27 27 26 25 24 23 23 23 23 23 23 23
11 11 12 13 13 14 15 15 16 17 18 19 19 19 20 20 18 17 18 19 20 20 20 19 21 22 22 24 25 25 26 27 25 22 22 24 22 20 21 26 31 31 30 33 34 32 31 30 28 28 27 28 29 28 26 25 26 26 26 27 27 26 27 27 28 29 29 30 30 31 31 31 30 29 28 27 26 25 24 24 24 24 24 23 23
11 12 12 12 13 14 14 15 15 16 17 19 20 20 20 20 19 19 20 21 21 21 21 21 22 23 22 23 25 26 27 28 28 25 24 27 30 29 27 27 28 27 27 31 34 35 33 32 32 32 30 29 29 29 28 28 28 28 28 28 28 28 28 28 28 29 29 30 30 31 31 32 32 31 31 29 28 27 26 26 26 25 25 25 25
10 12 13 13 14 14 14 14 14 15 15 16 17 18 19 19 19 19 20 21 21 22 22 22 23 23 23 24 24 25 27 28 28 27 27 29 31 31 29 29 29 27 27 28 30 34 35 34 33 33 33 32 31 30 30 29 29 30 30 29 29 29 30 29 29 29 29 29 29 30 31 32 33 33 33 32 31 29 28 28 27 27 27 26 26
9 10 12 13 14 15 15 15 14 14 15 15 16 17 18 18 19 19 19 20 21 22 23 24 24 24 24 25 26 26 27 29 29 27 28 29 30 31 31 32 34 32 30 29 29 33 36 35 32 33 34 33 32 32 30 29 29 31 32 32 31 30 30 31 30 30 30 30 30 30 30 32 33 34 35 34 33 32 31 30 29 29 28 28 28
10 10 11 12 13 14 14 14 15 15 15 15 15 16 17 17 18 20 21 21 22 24 25 24 25 26 26 26 28 28 27 29 30 27 26 28 29 31 30 28 31 33 33 34 34 35 35 31 27 29 30 29 30 32 30 30 31 31 31 31 31 31 30 30 30 30 31 31 32 32 32 33 33 34 35 35 35 34 33 32 30 30 30 29 29
10 10 10 11 14 13 12 13 14 14 14 15 15 16 16 17 18 20 21 21 22 24 25 24 23 26 28 27 27 28 28 28 29 28 28 30 29 30 30 29 32 37 37 36 37 35 33 31 26 25 26 25 26 30 31 31 31 31 31 31 31 31 30 30 30 30 31 31 32 32 33 33 33 33 34 35 35 35 34 33 31 31 30 30 30
10 11 11 12 14 13 12 12 12 12 13 13 15 15 16 16 17 18 19 20 21 21 23 23 21 23 26 26 26 29 30 29 28 27 29 32 32 31 33 33 33 36 33 32 35 34 32 32 30 28 28 29 28 28 30 32 32 31 31 31 31 30 30 30 30 30 30 31 32 32 33 33 34 34 33 34 34 34 34 33 32 31 31 31 30
10 12 13 13 14 13 13 13 13 13 14 13 14 14 15 15 15 16 17 18 19 18 20 22 21 21 24 25 25 27 29 30 28 26 26 30 31 32 33 32 30 31 30 30 34 35 35 33 30 28 31 36 35 30 29 31 33 33 31 31 31 31 30 30 29 29 29 29 30 30 31 32 34 34 34 34 34 34 33 33 32 32 32 32 31
11 12 13 13 13 13 14 14 13 13 14 14 14 14 14 15 15 15 16 17 18 18 19 21 21 22 23 25 25 25 26 28 28 28 28 30 31 31 32 32 31 32 32 32 33 34 36 34 30 27 30 36 37 35 33 32 32 32 32 31 31 31 32 31 29 29 28 28 28 28 29 30 32 34 35 35 34 34 33 33 33 33 33 32 31
12 11 11 12 12 13 13 13 13 13 13 14 15 15 15 15 15 16 17 17 18 18 19 20 22 23 24 24 25 26 27 27 27 28 30 32 32 31 31 31 32 33 32 31 33 33 33 33 33 30 28 30 33 35 35 34 32 31 31 32 31 32 33 33 32 31 29 29 29 28 29 30 31 33 34 35 35 34 33 33 33 33 33 32 32
11 11 11 11 12 12 12 12 13 13 13 14 16 16 16 16 16 16 17 17 17 18 19 19 20 22 23 25 26 28 29 29 27 28 30 32 32 33 36 34 32 35 34 31 33 35 33 32 33 32 28 27 29 31 32 34 34 31 31 33 32 32 33 34 33 32 31 30 29 28 28 29 31 32 33 35 35 34 34 33 34 34 33 32 31
11 10 10 11 11 12 12 13 13 14 14 15 16 16 16 16 16 15 15 15 16 17 18 18 19 21 22 24 27 29 31 31 30 29 31 33 33 34 37 38 37 39 38 35 37 40 38 35 33 32 31 29 28 29 30 32 34 34 34 35 33 31 33 35 33 32 32 30 29 29 28 29 31 31 33 35 35 35 34 34 34 33 31 31 30
10 10 11 11 11 12 13 13 14 15 15 15 15 16 16 15 15 15 14 14 16 17 19 19 20 22 23 24 26 29 31 32 31 32 32 33 34 34 35 37 40 40 37 35 40 44 41 38 37 33 31 31 30 31 32 33 34 35 36 35 33 32 33 35 34 33 33 31 30 30 30 30 30 31 32 33 34 34 34 33 32 31 31 31 31
12 11 12 12 12 12 14 14 14 15 15 15 15 16 16 15 15 15 16 17 19 20 20 21 22 23 25 26 27 29 31 32 32 32 32 33 34 36 36 34 35 37 36 36 41 46 44 40 40 38 34 33 35 36 36 36 36 37 36 35 33 32 32 32 34 35 34 32 30 30 30 30 30 30 31 32 33 33 33 32 32 32 32 32 31
13 13 13 13 13 13 14 14 14 15 15 15 16 16 16 15 15 16 18 19 21 22 22 22 22 23 25 29 31 32 31 32 34 33 31 33 36 36 36 35 35 38 42 42 41 44 46 42 42 43 39 34 35 36 35 35 36 36 35 36 33 31 30 30 32 34 34 32 30 30 29 29 29 29 30 31 32 33 33 33 33 33 33 31 30
13 14 15 15 14 13 14 14 14 15 15 15 16 16 16 16 16 17 19 21 22 24 23 23 22 23 27 31 33 33 30 30 34 35 34 34 34 35 35 37 38 37 40 42 39 41 46 44 41 42 40 35 35 38 39 38 37 34 32 32 34 32 30 30 31 33 33 32 30 30 30 29 29 30 31 32 33 33 34 34 33 32 31 30 29
13 14 16 16 15 14 14 14 15 15 16 16 16 17 16 17 19 19 21 22 23 24 24 24 25 25 28 31 31 30 29 29 32 34 35 35 33 34 35 37 39 37 39 41 39 40 43 43 41 41 40 36 36 40 43 42 39 36 32 30 32 31 28 28 30 31 31 31 29 30 29 28 28 29 31 32 33 33 33 32 31 30 29 28 28
13 13 15 17 16 16 16 15 16 16 16 16 17 17 16 17 20 21 21 22 22 23 24 25 25 25 26 28 29 29 29 31 32 32 34 35 35 36 35 35 37 38 40 43 43 40 41 42 42 42 41 38 36 37 39 39 38 38 38 34 32 32 29 27 27 27 29 29 29 29 29 28 28 29 31 31 31 30 30 29 29 28 28 27 27
13 13 15 15 15 17 17 17 17 17 17 17 17 17 16 16 19 21 21 21 21 22 23 24 23 23 24 24 26 27 28 30 32 32 33 33 34 36 36 35 36 38 39 39 41 41 40 42 41 40 40 37 34 33 33 35 35 36 39 38 35 34 33 30 27 26 27 30 29 28 29 29 29 29 29 29 29 28 28 28 28 27 27 26 26
13 14 15 15 16 17 18 19 17 16 17 17 16 17 18 17 18 21 21 21 21 21 23 23 21 21 21 22 23 24 26 29 31 32 33 32 31 31 33 34 35 37 36 34 38 41 41 41 39 39 40 38 34 32 32 33 34 34 36 36 33 32 32 31 30 28 28 31 31 30 30 29 29 28 28 27 27 27 27 27 27 26 26 25 24
14 15 15 16 17 17 18 19 17 15 15 15 14 15 17 18 18 20 21 21 21 21 22 22 20 19 19 20 22 24 26 27 28 31 32 31 29 28 30 31 32 35 35 33 38 42 40 37 37 39 42 41 39 36 33 32 34 33 33 32 31 30 30 30 30 29 28 29 30 31 31 30 28 28 27 26 25 26 26 27 26 26 25 24 23
14 15 16 16 17 18 18 18 17 16 16 15 14 14 16 17 18 20 21 21 20 21 22 21 17 16 17 19 22 25 28 29 29 31 32 31 30 30 29 29 29 31 32 31 32 34 34 34 36 38 40 42 41 39 37 35 34 34 35 33 31 30 29 29 30 29 28 29 30 32 32 31 30 28 27 26 25 26 26 27 27 26 25 24 23
15 16 17 17 17 18 17 17 16 17 16 14 14 15 15 17 19 20 21 20 20 21 22 20 16 15 17 19 21 24 30 32 31 31 33 33 33 33 31 30 28 27 29 31 30 29 29 32 37 38 38 42 43 39 38 38 36 36 36 36 35 33 31 30 30 28 28 31 33 33 33 33 32 31 30 29 27 27 28 28 29 28 27 26 24
15 17 18 17 17 17 16 16 17 17 16 15 16 16 16 17 19 21 22 21 21 21 22 19 16 16 18 19 20 24 30 34 33 33 34 35 36 37 37 35 30 25 25 30 34 34 30 30 35 37 39 42 43 39 37 36 37 37 36 34 35 36 34 33 32 30 30 32 34 35 36 35 32 32 32 32 30 29 30 30 30 29 29 28 26
16 17 17 17 16 16 16 16 16 16 15 15 18 18 17 18 19 20 21 21 21 22 22 20 17 16 18 20 20 22 28 32 33 34 35 35 36 39 41 39 32 24 21 24 30 35 34 32 34 36 39 41 42 40 36 35 35 37 37 35 35 34 33 33 34 34 33 32 33 36 38 36 34 33 33 32 32 31 31 32 31 31 29 28 28
16 16 16 16 16 16 16 15 15 15 15 16 18 18 17 18 19 19 21 21 21 22 21 20 18 17 19 21 22 22 25 29 33 35 35 35 36 39 41 42 37 28 22 21 23 29 33 35 36 36 38 41 43 40 36 36 36 35 35 37 37 36 33 32 34 34 35 34 32 34 37 36 35 35 35 35 34 33 32 32 31 31 30 29 28
14 15 15 16 16 16 16 15 14 15 16 16 17 18 18 19 19 19 21 22 21 21 21 20 19 19 20 22 24 24 23 27 30 33 34 36 37 39 41 43 42 36 28 25 23 25 28 33 38 40 38 39 43 42 36 34 36 34 33 35 37 37 35 34 35 35 34 33 30 31 35 37 36 36 37 37 36 35 34 32 32 32 31 30 29
14 14 14 15 15 15 16 16 16 15 16 16 17 19 20 21 21 22 22 23 22 22 21 20 20 22 22 22 24 26 25 26 29 31 33 35 38 41 41 43 45 40 33 28 25 26 27 30 36 42 41 39 42 44 38 35 35 34 34 36 36 37 37 35 33 32 32 32 29 29 33 35 35 36 38 37 35 36 36 34 33 33 31 29 30
12 13 13 13 14 15 16 18 18 16 16 17 17 18 20 22 23 24 24 24 24 22 21 20 21 23 23 24 24 26 27 28 29 30 31 33 37 41 42 44 45 40 35 32 29 29 31 31 33 40 43 42 43 42 38 36 36 35 36 37 37 36 37 36 33 30 32 32 29 29 33 34 34 37 39 37 34 35 36 36 36 35 32 30 30
13 13 13 14 16 18 19 20 19 18 18 18 17 17 18 21 23 25 25 24 24 23 22 20 21 23 25 24 24 25 27 27 29 30 30 30 35 40 42 45 45 42 38 36 33 34 39 38 33 37 42 44 45 44 38 35 34 33 34 37 38 36 34 33 31 30 31 31 29 30 33 35 36 38 39 37 35 34 35 37 38 36 32 30 30
15 14 15 15 16 18 20 20 19 18 19 19 18 19 19 19 20 23 25 24 24 25 23 19 20 24 25 24 23 24 25 25 27 29 28 29 33 38 42 45 45 44 41 39 38 41 45 43 36 37 42 45 47 48 46 42 38 34 33 33 35 36 34 31 30 31 32 31 29 31 35 37 37 37 38 37 36 36 35 35 35 33 30 30 29
16 15 15 15 15 15 17 18 19 20 20 19 19 19 18 18 18 21 23 24 25 26 23 18 19 24 27 24 22 23 23 23 25 26 26 27 30 35 42 45 44 44 44 43 46 49 47 41 34 36 42 46 47 47 48 48 44 39 37 34 31 31 32 31 30 31 32 32 31 33 38 39 36 34 36 37 37 37 35 33 31 29 28 28 26
15 14 14 14 14 14 14 16 19 19 18 18 19 19 18 17 17 18 21 24 25 26 23 20 20 23 25 24 22 21 22 23 24 25 25 25 27 33 41 43 43 45 46 45 48 50 45 38 31 30 36 42 46 45 45 46 45 42 41 40 35 32 32 31 28 28 29 30 31 34 39 41 38 34 34 35 35 35 35 33 30 28 26 24 23
Wind_Direction
265 270 273 276 283 286 285 283 281 283 281 282 282 280 283 287 295 298 298 300 298 297 293 286 279 270 261 260 267 269 267 261 253 249 255 259 254 245 237 235 234 232 231 231 235 237 236 234 232 228 223 223 225 221 218 217 217 217 220 222 222 221 219 218 219 220 217 215 216 220 224 227 230 234 237 240 246 250 253 256 259 261 259 256 252
267 270 272 274 281 284 284 284 282 282 280 282 283 285 287 287 296 299 300 305 303 301 297 289 281 270 258 256 265 270 267 266 265 258 257 258 256 257 252 242 236 234 233 232 233 236 237 235 233 232 227 224 227 225 221 218 218 219 220 222 223 221 219 217 219 222 223 220 220 223 226 230 233 237 241 243 248 251 255 259 262 264 262 259 256
268 267 269 273 277 278 281 285 285 279 279 284 286 288 289 289 292 292 297 301 297 297 298 293 284 279 271 267 266 264 263 261 264 268 266 264 259 258 260 254 244 239 237 233 232 234 236 236 232 231 229 227 228 227 223 220 219 220 221 222 223 222 221 219 219 221 224 224 225 227 229 232 236 240 244 245 248 250 254 260 264 267 267 266 263
275 275 275 278 282 283 282 281 277 270 274 280 282 283 285 289 290 290 297 299 291 289 293 291 286 283 274 267 261 258 260 254 250 259 262 265 263 258 262 264 255 247 243 238 234 233 233 234 233 230 228 229 229 227 225 222 221 221 222 222 223 224 223 222 222 222 223 225 226 229 232 235 238 242 246 249 251 252 254 258 264 268 271 271 269
277 278 277 279 281 283 282 279 275 271 273 275 273 273 278 285 288 291 294 292 287 284 284 283 280 275 268 267 268 264 262 257 252 252 253 256 261 261 262 266 264 256 251 246 239 235 232 231 232 229 227 228 229 229 227 225 223 222 223 222 222 223 225 225 223 223 223 224 226 229 232 235 238 241 246 250 254 256 257 259 262 265 268 269 269
278 279 278 278 277 277 277 276 275 273 273 274 272 273 277 280 283 287 286 284 282 280 281 280 276 273 272 274 275 270 265 264 263 260 255 249 251 259 260 262 266 264 258 254 246 239 234 231 230 229 227 226 227 229 229 229 227 225 224 223 223 223 224 225 224 224 225 226 227 228 230 233 237 240 244 249 254 258 260 261 262 262 263 264 265
277 276 276 276 275 275 274 275 276 274 273 273 272 273 275 277 280 284 283 279 278 276 276 277 276 275 278 282 279 274 271 269 267 265 261 253 248 253 259 263 266 264 258 256 251 244 237 232 230 229 229 227 226 228 230 231 230 229 227 223 223 223 224 225 224 224 226 228 229 230 232 233 237 240 243 247 251 255 258 260 261 261 260 259 260
277 276 274 272 271 272 273 273 274 275 273 271 271 272 274 277 280 282 282 280 276 275 274 275 276 273 277 282 281 277 274 273 270 265 263 258 251 249 254 260 262 259 256 254 253 248 241 235 232 230 231 231 229 229 230 231 232 231 230 227 225 224 225 225 225 226 227 228 230 232 234 235 238 240 241 245 248 252 255 258 259 258 258 257 256
282 279 274 271 268 268 271 271 271 271 270 270 272 274 275 276 277 279 283 282 278 277 276 276 276 274 274 279 282 279 275 274 272 267 263 260 255 250 251 255 255 254 252 252 255 253 246 240 236 233 233 233 233 232 232 232 233 233 233 232 229 227 227 227 227 227 228 229 231 233 235 236 238 239 241 243 245 250 253 256 257 257 257 255 255
285 282 276 273 268 264 264 265 266 266 267 269 271 274 276 275 276 280 284 282 280 281 281 278 276 274 270 271 277 277 275 276 273 268 265 261 256 252 254 257 253 250 246 245 250 253 250 244 240 236 234 234 234 234 235 234 234 234 234 233 233 232 231 230 230 230 230 231 232 233 234 235 236 237 239 242 244 247 249 253 255 257 258 257 256
288 288 285 281 275 269 262 260 261 262 265 270 271 274 278 280 281 283 286 285 284 285 282 279 276 273 269 268 268 268 272 276 273 270 268 263 257 254 256 257 253 249 244 242 245 246 244 241 239 238 236 235 234 234 236 237 237 236 234 234 234 235 234 234 234 234 234 233 234 234 234 234 234 236 238 241 244 246 248 249 251 253 256 258 258
290 292 291 288 283 277 271 267 265 263 266 270 275 278 279 280 282 284 286 287 287 284 280 276 275 272 269 268 263 263 270 271 268 270 269 265 260 255 254 255 253 249 243 244 248 245 238 234 237 239 239 237 234 235 237 238 239 238 237 235 235 235 235 236 236 237 237 237 236 234 234 234 235 236 239 242 245 247 249 249 250 251 253 256 258
291 291 291 291 289 285 283 282 281 278 274 275 280 284 283 282 285 288 289 288 286 283 281 277 275 270 266 268 268 267 269 267 266 269 269 267 260 253 251 252 253 251 245 244 247 244 235 231 237 240 241 239 234 234 238 238 238 239 239 238 237 237 236 236 236 237 239 238 237 235 234 235 237 239 243 246 247 247 248 249 250 250 252 254 257
291 292 293 294 294 291 291 293 294 292 288 288 289 290 290 288 288 290 291 291 289 283 279 276 274 272 270 272 276 275 270 266 268 270 270 265 255 251 251 249 251 252 247 243 244 241 234 231 237 241 240 238 236 235 236 237 237 236 238 238 238 238 237 237 237 237 238 238 237 236 235 236 239 242 245 248 248 248 247 247 248 249 250 252 254
289 293 293 293 293 292 291 290 289 287 286 288 287 287 287 286 286 289 293 294 290 283 278 275 274 274 273 272 275 278 275 266 267 272 272 265 251 248 250 246 246 246 241 242 243 238 236 233 234 239 240 237 238 239 237 237 237 236 237 238 238 238 238 238 238 238 238 238 237 236 236 238 241 244 247 250 250 249 247 247 246 247 249 250 252
288 288 288 290 290 289 288 285 283 280 281 282 280 280 281 282 283 286 290 289 287 285 281 278 275 271 268 267 269 273 272 269 272 274 272 265 253 245 246 244 241 239 235 236 237 233 237 237 232 235 238 239 242 240 240 242 241 238 238 238 238 238 238 239 239 240 240 239 238 238 239 241 244 246 249 251 251 251 251 249 247 247 248 249 250
283 282 284 288 288 286 286 285 283 280 280 279 276 276 277 278 281 282 283 283 284 284 280 280 278 271 265 266 267 267 271 280 287 282 271 264 255 247 247 244 242 241 236 233 233 232 233 235 235 234 231 238 245 242 240 243 242 240 238 238 238 237 237 237 238 239 240 241 241 241 242 243 244 246 248 249 249 251 251 251 249 248 249 249 250
287 286 285 287 286 286 284 283 283 280 279 277 277 279 280 280 281 283 281 279 279 278 279 281 279 274 271 271 272 271 275 282 287 287 283 275 265 256 253 249 245 243 240 237 234 233 232 231 235 235 230 233 243 244 241 242 241 240 240 239 238 238 237 236 236 237 238 240 242 243 244 245 245 245 246 246 246 248 250 250 251 251 251 251 252
296 295 293 293 292 290 287 286 284 282 281 280 282 284 282 282 280 278 276 278 280 279 282 285 283 281 278 276 276 274 275 276 277 282 287 283 274 265 260 256 250 244 244 245 241 239 238 234 233 234 230 229 236 242 241 239 239 241 243 242 240 238 237 236 236 236 237 239 241 244 245 245 246 245 244 243 243 246 249 252 253 253 253 253 254
301 299 297 297 296 295 295 295 292 290 286 285 287 286 283 284 282 277 279 283 286 286 288 289 288 287 284 281 279 279 278 275 273 273 277 280 279 274 268 262 256 248 247 248 246 244 241 240 238 232 229 228 233 239 240 238 239 241 242 243 243 239 235 236 237 238 239 239 240 243 244 245 245 245 244 243 243 246 250 253 255 255 255 255 256
307 304 300 300 301 301 301 300 298 297 295 294 295 292 289 290 287 284 287 289 290 290 289 289 290 290 290 289 285 282 280 277 276 273 272 275 278 279 275 270 267 260 254 249 247 244 238 240 240 231 230 234 233 235 238 239 239 241 241 242 244 243 238 236 236 238 239 240 241 242 244 245 244 245 245 244 244 246 250 254 257 258 258 258 258
306 304 303 305 305 306 307 306 303 303 304 304 302 300 297 294 291 291 291 292 291 289 287 287 289 290 292 294 292 286 282 281 281 278 276 274 272 275 278 278 275 271 266 260 255 251 243 238 234 230 234 238 234 232 235 238 240 242 243 243 243 243 241 239 235 235 237 239 241 243 245 245 245 244 245 245 246 247 251 255 257 258 259 260 260
303 304 304 304 305 308 307 305 307 307 308 309 307 305 303 299 297 298 298 296 294 290 289 289 289 289 290 292 292 289 287 285 283 279 275 272 270 273 276 277 276 275 275 268 261 260 255 244 231 231 238 240 236 232 231 235 239 241 243 244 244 243 242 240 237 236 236 238 240 242 244 246 245 245 245 245 247 248 251 254 256 257 258 260 261
306 308 307 307 311 315 312 307 308 309 309 310 309 307 306 303 301 302 305 304 299 295 294 292 288 287 288 289 290 289 286 284 283 280 275 273 273 272 271 273 275 277 278 272 264 261 259 251 238 237 244 243 238 232 228 232 236 239 242 243 243 244 243 241 239 238 237 239 240 241 243 245 245 245 244 245 246 248 250 252 253 255 256 259 260
306 306 307 309 313 317 319 317 316 315 315 314 313 311 308 306 304 304 307 305 302 302 301 299 296 291 290 290 289 288 284 281 281 282 280 277 275 271 269 272 274 274 275 273 268 263 261 258 248 242 244 243 241 234 228 231 234 237 241 242 243 244 244 242 240 239 238 239 240 242 243 245 245 244 244 244 245 246 247 248 250 252 254 257 258
300 303 307 310 312 314 315 317 319 319 317 316 317 316 313 311 308 306 307 304 303 307 309 309 307 301 299 296 293 289 285 282 279 277 280 280 276 273 271 270 268 270 273 275 274 270 268 267 259 248 245 245 245 239 232 231 233 236 239 242 244 243 243 241 239 238 238 239 239 241 242 244 245 244 243 242 243 245 246 246 248 249 252 254 256
295 300 304 306 309 310 310 312 315 315 314 315 317 318 317 314 311 310 310 308 308 313 315 314 311 309 307 302 298 295 293 289 282 276 274 276 277 275 270 266 266 270 274 275 277 275 270 267 264 256 251 250 247 240 236 235 233 234 237 241 242 243 242 239 236 237 237 238 239 240 242 242 243 243 242 241 242 243 244 246 248 249 251 253 255
292 295 297 302 303 303 305 305 307 307 307 310 313 315 315 313 312 313 312 312 315 318 319 318 315 313 312 308 305 302 298 295 292 286 279 275 275 272 266 262 262 268 272 273 274 274 271 268 265 260 257 255 249 241 237 237 236 234 235 238 240 241 242 240 238 238 238 239 241 243 244 243 243 242 241 240 240 241 242 245 248 249 251 253 254
288 290 291 298 300 300 301 300 301 301 302 307 312 314 314 312 312 312 313 315 318 321 321 319 316 314 312 313 312 306 301 300 297 291 287 281 274 267 265 265 262 262 266 269 270 270 270 270 266 262 257 249 244 243 239 237 239 236 234 237 239 240 243 243 240 238 238 240 243 246 246 245 244 242 241 240 238 238 240 242 246 249 250 251 252
286 289 291 297 300 300 300 300 300 300 301 307 311 313 314 313 311 310 313 316 316 317 319 318 317 315 314 315 315 311 308 306 299 291 288 286 280 270 267 268 266 262 260 262 267 268 268 268 264 262 260 248 239 242 243 240 242 241 237 239 240 239 243 246 244 241 240 240 242 246 248 246 244 242 240 238 236 236 238 241 244 246 247 248 250
291 292 292 297 301 301 301 302 302 301 303 305 308 313 314 313 312 310 311 312 312 314 315 316 318 317 318 318 317 314 312 308 301 294 289 285 284 279 274 270 264 261 259 260 264 266 266 266 265 262 258 253 249 249 249 249 250 245 239 238 241 241 243 246 246 243 241 239 241 245 247 246 244 242 239 236 234 235 237 239 241 242 245 248 250
297 297 297 298 300 302 303 306 307 306 305 304 305 311 313 311 309 308 310 313 315 316 317 318 318 317 319 320 319 318 315 311 306 301 293 287 286 282 278 270 261 260 266 264 261 263 264 264 265 263 256 257 262 261 257 255 255 251 242 237 238 240 242 245 244 243 241 240 241 244 246 245 243 241 239 236 233 234 235 236 238 241 245 248 249
300 302 301 298 297 300 303 306 308 308 307 306 306 308 309 308 306 308 310 313 317 320 321 319 316 317 319 321 322 322 318 313 311 307 299 293 290 285 279 271 265 265 266 262 258 261 264 263 264 264 259 256 260 262 259 256 255 254 246 238 237 239 240 241 242 242 242 240 240 241 243 243 242 241 239 237 235 234 235 237 239 243 245 245 245
298 299 300 299 297 298 301 304 306 306 306 305 305 305 306 306 307 309 311 314 318 320 320 318 315 317 319 321 324 324 317 310 308 306 302 297 292 288 282 275 270 266 259 256 257 259 262 263 262 262 260 255 253 256 259 258 254 251 245 238 237 239 239 239 240 241 241 240 238 237 238 241 242 242 240 239 239 239 239 241 242 242 242 241 243
293 293 297 300 298 294 294 298 301 303 305 305 307 307 306 306 308 310 312 315 317 318 320 319 316 318 321 323 325 324 318 312 308 305 302 298 292 289 287 281 276 270 258 254 258 258 258 261 261 259 259 257 253 254 256 258 254 247 243 239 235 236 239 240 241 242 242 240 236 233 236 239 241 242 241 240 241 241 241 241 239 238 238 240 243
292 292 296 301 302 298 293 293 296 301 303 303 307 306 304 304 305 307 310 313 315 317 321 322 319 320 324 326 328 327 322 316 312 308 304 300 296 294 291 286 279 274 267 260 259 259 257 259 260 258 259 259 255 252 252 256 253 244 241 242 237 237 243 243 241 240 240 239 236 233 233 236 240 240 240 239 238 238 237 236 236 236 238 240 242
293 294 295 297 299 296 293 292 294 297 300 303 306 304 302 300 300 303 308 311 311 315 321 323 320 322 326 329 331 330 327 320 314 312 309 304 302 300 297 291 281 277 276 264 257 260 258 255 257 258 256 254 252 249 246 248 247 241 239 240 238 241 245 242 237 236 237 236 236 234 232 234 238 238 237 236 235 234 234 234 235 236 237 238 239
293 295 295 292 292 292 293 292 289 288 293 299 300 298 297 297 297 302 308 309 307 310 320 322 318 321 329 333 336 337 334 327 321 319 317 312 310 309 306 301 289 281 279 266 256 259 258 253 255 257 254 249 247 246 242 240 242 240 238 237 235 239 243 239 235 233 233 233 234 233 232 232 234 234 233 233 233 234 234 234 234 234 233 234 236
293 295 296 294 293 292 293 292 287 280 281 286 287 287 292 295 298 303 307 307 304 307 317 319 316 322 329 336 346 350 346 341 338 338 334 325 318 316 315 311 297 285 282 275 262 256 253 252 253 253 252 249 246 245 243 241 241 237 235 236 235 237 240 236 231 230 231 233 233 231 230 231 233 233 232 232 233 235 235 233 232 230 230 231 232
293 295 297 295 292 291 291 291 288 280 277 280 281 280 286 293 298 302 305 304 302 305 313 316 313 317 328 341 353 355 351 348 348 350 349 342 333 329 327 322 308 289 279 278 270 259 254 257 256 252 252 250 246 244 243 241 238 234 234 237 238 239 239 234 230 230 231 232 232 231 229 230 231 232 232 232 233 234 234 233 231 229 229 229 230
292 295 298 295 291 291 293 292 287 281 279 276 274 277 288 297 300 303 304 302 299 303 310 312 308 310 326 343 352 351 350 349 348 349 350 349 344 339 338 335 326 305 281 273 273 269 265 264 260 254 251 249 246 242 238 237 237 238 240 243 243 242 241 237 235 235 234 233 234 232 228 228 230 231 231 231 231 233 233 233 232 229 229 230 232
294 298 299 296 292 292 293 292 289 288 285 277 276 287 300 305 306 306 305 301 298 303 307 307 305 306 320 338 347 348 349 350 348 347 348 349 348 344 342 340 335 323 298 280 275 273 270 267 263 256 248 246 244 239 237 240 241 242 243 244 241 238 239 238 239 241 238 234 235 233 228 227 229 230 231 231 232 234 235 235 233 231 232 235 238
298 300 299 295 293 293 293 291 290 290 289 285 287 294 302 309 310 307 304 301 298 302 305 304 304 307 316 330 341 346 350 351 351 349 347 348 349 347 346 344 340 332 318 298 283 277 272 268 266 257 246 244 244 240 241 244 245 245 244 239 234 233 235 237 238 240 233 226 228 230 227 226 228 231 233 234 235 237 238 238 237 237 238 241 242
301 300 300 297 295 296 295 293 292 290 287 287 292 297 305 315 317 310 305 302 298 300 303 300 300 309 317 323 329 339 349 354 354 350 345 345 346 346 346 346 344 339 331 318 300 286 276 268 265 259 249 246 245 244 243 242 243 245 243 237 234 235 236 235 235 238 233 226 228 231 227 225 228 232 235 236 236 237 238 240 241 242 243 244 245
301 301 301 300 298 299 297 292 292 295 295 295 297 302 310 319 323 318 311 305 300 298 299 295 293 303 315 318 319 326 339 350 353 349 342 339 341 343 344 344 344 342 337 329 317 303 287 272 264 260 254 248 245 243 241 239 239 240 239 236 233 232 233 234 235 238 236 231 230 230 227 224 226 229 233 236 235 234 237 242 244 244 243 244 246
299 301 302 304 304 302 297 293 294 295 296 298 300 304 310 317 322 321 316 310 304 297 294 293 290 295 308 315 314 316 324 336 343 342 339 337 338 341 342 342 342 340 335 331 322 312 300 281 265 259 253 249 245 241 239 239 239 237 237 236 232 231 234 237 238 238 236 231 229 228 225 223 223 226 231 234 233 233 236 240 244 244 244 245 248
293 296 299 301 298 293 292 296 298 294 292 294 296 301 309 316 318 319 317 314 309 299 292 295 295 297 307 313 311 312 316 322 328 331 333 336 338 340 342 342 341 337 331 327 322 314 307 291 271 259 253 248 243 238 235 239 241 239 239 240 238 237 240 240 236 231 230 231 231 229 225 223 222 226 230 231 232 233 234 236 240 243 245 247 249
281 285 288 289 289 289 292 298 299 296 297 299 296 297 305 309 311 313 315 314 312 304 294 294 296 299 307 311 310 311 314 318 324 326 329 334 337 339 342 342 340 336 332 327 321 317 312 301 278 258 251 247 242 236 234 238 241 240 240 242 239 235 235 235 230 228 231 233 232 230 227 224 222 225 227 228 228 227 226 229 234 239 242 245 248
277 284 288 290 293 295 299 301 300 299 303 305 302 299 298 297 300 306 310 311 312 306 296 292 297 303 311 314 312 312 314 319 326 327 328 331 335 339 343 342 339 336 333 329 324 319 314 304 281 254 243 240 238 237 238 241 241 237 235 238 237 234 234 231 225 227 234 235 231 228 227 224 222 222 224 224 224 222 220 224 230 233 236 240 245
279 284 287 290 292 294 298 302 303 305 307 306 303 300 293 288 291 298 303 305 307 305 301 298 299 305 314 320 317 315 318 322 328 330 330 330 334 342 345 343 340 336 332 330 328 323 314 302 280 251 237 234 234 234 237 240 240 235 231 233 236 236 236 233 228 228 233 235 230 225 225 225 221 219 221 220 220 221 220 221 224 227 231 237 242
279 281 284 286 287 288 292 299 305 310 310 306 303 299 292 286 288 295 298 300 304 307 308 307 305 307 314 321 322 320 324 328 329 331 332 330 333 342 346 344 340 337 335 334 332 325 315 300 276 247 234 233 231 231 233 236 238 237 233 231 234 236 236 236 234 228 227 231 228 220 219 219 212 210 216 217 217 219 218 216 219 224 231 238 240